ORBCOMM-X [-] 1 21576U 91050C 10075.78356253 .00000046 00000-0 28719-4 0 2666 2 21576 98.5052 30.5753 0003253 313.7398 46.3510 14.39994493979775 ORBCOMM FM01 [-] 1 23545U 95017A 10074.94816709 .00000680 00000-0 15083-3 0 4536 2 23545 69.9710 219.1893 0010642 219.7908 140.2455 14.61433420793777 ORBCOMM FM02 [+] 1 23546U 95017B 10074.71773366 .00000514 00000-0 11761-3 0 5102 2 23546 69.9754 221.8437 0011174 206.0203 154.0335 14.61348511793752 ORBCOMM FM08 [+] 1 25112U 97084A 10075.51617148 .00000478 00000-0 21809-3 0 4756 2 25112 45.0176 154.3399 0006892 4.7951 355.2950 14.34386764639352 ORBCOMM FM10 [+] 1 25113U 97084B 10074.64542039 .00000123 00000-0 93176-4 0 2039 2 25113 45.0187 159.2612 0005004 316.9993 43.0469 14.34398829639223 ORBCOMM FM11 [+] 1 25114U 97084C 10075.19351617 .00000017 00000-0 55672-4 0 1367 2 25114 45.0191 156.3042 0005941 329.2217 30.8273 14.34401999639309 ORBCOMM FM12 [+] 1 25115U 97084D 10074.68894863 .00000308 00000-0 15830-3 0 1304 2 25115 45.0185 158.4323 0004768 329.2140 30.8421 14.34378848639232 ORBCOMM FM09 [+] 1 25116U 97084E 10075.53355803 .00000265 00000-0 14311-3 0 2975 2 25116 45.0193 154.8414 0005359 314.8104 45.2333 14.34417791639356 ORBCOMM FM05 [+] 1 25117U 97084F 10074.66281223 .00000078 00000-0 77227-4 0 2320 2 25117 45.0196 159.2144 0001514 320.8820 39.1928 14.34382772639228 ORBCOMM FM06 [+] 1 25118U 97084G 10074.65387725 .00000073 00000-0 75524-4 0 1214 2 25118 45.0189 159.1284 0000589 270.7855 89.2921 14.34385839639223 ORBCOMM FM07 [+] 1 25119U 97084H 10075.50726920 .00000292 00000-0 15260-3 0 3893 2 25119 45.0179 155.3072 0002686 318.5398 41.5209 14.34396476639341 ORBCOMM FM03 [-] 1 25158U 98007B 10075.43530925 .00000230 00000-0 14998-3 0 1248 2 25158 107.9672 305.9805 0051317 182.0389 178.0547 14.25533991628317 ORBCOMM FM04 [+] 1 25159U 98007C 10075.65175337 .00000177 00000-0 12812-3 0 1181 2 25159 107.9674 306.2269 0047016 183.1728 176.9118 14.25545699628373 ORBCOMM FM17 [+] 1 25413U 98046A 10074.49933490 -.00000137 00000-0 76813-6 0 2632 2 25413 44.9972 77.3576 0004067 276.9316 83.1060 14.27593833605462 ORBCOMM FM18 [+] 1 25414U 98046B 10075.03849736 .00000206 00000-0 13811-3 0 2084 2 25414 44.9956 74.3709 0006449 268.2785 91.7315 14.27867176605541 ORBCOMM FM19 [+] 1 25415U 98046C 10074.41881338 -.00000014 00000-0 50039-4 0 2453 2 25415 44.9956 77.4703 0004994 266.7303 93.2965 14.27862221605456 ORBCOMM FM20 [+] 1 25416U 98046D 10075.33844953 -.00000110 00000-0 11410-4 0 6886 2 25416 44.9960 73.3584 0003790 285.3977 74.6406 14.27852422605546 ORBCOMM FM16 [+] 1 25417U 98046E 10075.27841122 -.00000072 00000-0 26725-4 0 2928 2 25417 44.9983 74.6207 0004707 289.0442 70.9828 14.27860300605579 ORBCOMM FM15 [+] 1 25418U 98046F 10075.28841886 .00000096 00000-0 93925-4 0 3390 2 25418 45.0001 74.7988 0005607 288.9926 71.0299 14.27858998605579 ORBCOMM FM14 [+] 1 25419U 98046G 10075.29841340 .00000316 00000-0 18240-3 0 3039 2 25419 44.9981 74.6867 0004448 274.8629 85.1671 14.27859159605576 ORBCOMM FM13 [+] 1 25420U 98046H 10075.02851406 .00000517 00000-0 26286-3 0 1856 2 25420 45.0000 76.3220 0005868 282.8803 77.1394 14.27858965605560 ORBCOMM FM21 [+] 1 25475U 98053A 10075.68649516 .00000420 00000-0 21917-3 0 2471 2 25475 45.0105 159.2119 0005553 207.0081 153.0479 14.29029085598791 ORBCOMM FM22 [+] 1 25476U 98053B 10075.65212493 -.00000011 00000-0 50150-4 0 9273 2 25476 45.0103 159.7668 0004066 225.0371 135.0136 14.29030272598772 ORBCOMM FM23 [+] 1 25477U 98053C 10075.22006254 .00000009 00000-0 58074-4 0 2354 2 25477 45.0109 161.5104 0004441 218.7602 141.2930 14.29024758598883 ORBCOMM FM24 [+] 1 25478U 98053D 10074.64999981 .00000162 00000-0 11791-3 0 8134 2 25478 45.0114 164.4200 0003189 224.8842 135.1729 14.29032713598788 ORBCOMM FM25 [+] 1 25479U 98053E 10074.68427041 .00000407 00000-0 21375-3 0 1091 2 25479 45.0108 163.6200 0004771 242.0954 117.9395 14.29023501598789 ORBCOMM FM26 [-] 1 25480U 98053F 10075.51928765 .00000043 00000-0 71041-4 0 1862 2 25480 45.0098 150.2160 0006842 277.5648 82.4430 14.29320811599006 ORBCOMM FM27 [+] 1 25481U 98053G 10074.69604595 .00000159 00000-0 11690-3 0 7231 2 25481 45.0094 163.2467 0003358 203.5548 156.5147 14.29030934598780 ORBCOMM FM28 [-] 1 25482U 98053H 10075.19310128 .00000179 00000-0 12209-3 0 8335 2 25482 45.0105 131.8823 0005514 267.4800 92.5436 14.30153254599220 ORBCOMM FM30 [+] 1 25980U 99065A 10075.17041639 .00000194 00000-0 13098-3 0 7678 2 25980 45.0360 326.7093 0005072 56.3852 303.7481 14.28906836536183 ORBCOMM FM31 [+] 1 25981U 99065B 10075.08771833 .00000325 00000-0 18217-3 0 8669 2 25981 45.0265 324.5780 0004077 65.0479 295.0781 14.28917189536160 ORBCOMM FM32 [+] 1 25982U 99065C 10074.91372262 -.00000003 00000-0 53121-4 0 8011 2 25982 45.0239 324.3577 0006100 72.6358 287.5075 14.29345706536155 ORBCOMM FM33 [-] 1 25983U 99065D 10074.76510899 -.00000053 00000-0 33915-4 0 7715 2 25983 45.0340 328.2719 0003863 44.3440 315.7679 14.28890509536116 ORBCOMM FM36 [+] 1 25984U 99065E 10074.72388629 .00000397 00000-0 21072-3 0 7985 2 25984 45.0412 330.2371 0004916 339.6531 20.4108 14.28914599536118 ORBCOMM FM35 [+] 1 25985U 99065F 10074.77902558 -.00000040 00000-0 38933-4 0 8290 2 25985 45.0444 330.8577 0002866 47.0570 313.0470 14.28910455536124 ORBCOMM FM34 [+] 1 25986U 99065G 10075.11432157 .00000003 00000-0 56018-4 0 7799 2 25986 45.0429 328.7470 0005054 31.9619 328.1538 14.28909618536170 ORBCOMM FM38 [S] 1 33060U 08031A 10074.69833031 .00000136 00000-0 56099-4 0 5572 2 33060 48.4435 245.3536 0006954 119.4951 240.6648 14.68795771 93247 ORBCOMM FM41 [S] 1 33061U 08031B 10074.71769604 .00000153 00000-0 58934-4 0 5625 2 33061 48.4466 245.5638 0006015 109.8053 250.3508 14.68767260 93257 ORBCOMM FM29 [S] 1 33062U 08031C 10075.71529493 .00000081 00000-0 47126-4 0 5437 2 33062 48.4424 241.9979 0007950 119.1577 241.0125 14.68426937 93383 ORBCOMM FM39 [S] 1 33063U 08031D 10074.83458764 .00000081 00000-0 47312-4 0 5596 2 33063 48.4429 246.8354 0009849 107.3143 252.8838 14.68231880 93244 ORBCOMM FM37 [S] 1 33064U 08031E 10074.72587335 .00000084 00000-0 47602-4 0 5362 2 33064 48.4431 246.2126 0007695 114.3726 245.7987 14.68512185 93247 ORBCOMM FM40 [S] 1 33065U 08031F 10074.69766463 .00000167 00000-0 62197-4 0 5267 2 33065 48.4453 247.6470 0008903 114.7458 245.4354 14.68203151 93221